User: anonymous   Login
Location: Writing-on-Stone Provincial Park
(49.0825°N, 111.6163°W)
Time: 01:00:20
(UTC-07:00)
Language:

BREEZE-M DEB (TANK) - Orbit

View from above orbital plane
View from above orbital plane
View from above satellite
View from above satellite

Ground track
Ground track

The orbit data is extracted from the following two-line orbital elements,

1 29649U 06056B   17019.42018719  .00001455  00000-0  35173-3 0  9994
2 29649  49.5024 342.4495 5378214  68.5699 339.2657  4.99155298180343
Epoch (UTC): 19 January 2017 10:05:04
Eccentricity: 0.5378214
inclination: 49.5024°
perigee height: 306 km
apogee height: 15862 km
right ascension of ascending node: 342.4495°
argument of perigee: 68.5699°
revolutions per day: 4.99155298
mean anomaly at epoch: 339.2657°
orbit number at epoch: 18034

The dashed part of the orbit path shows where the satellite is in the earth's shadow,  

DLR